RYR6566 LEAL-LEPA

Flight info

Callsign RYR6566
Flight time 0h 33m
Altitude 24000
Route MITOS N851 RUXET
Aircraft A320/M-SDE3FGHIRWY/LB1

Departure

Time 2026-05-06 17:03
Airport Alicante-Elche Miguel Hernández Airport (LEAL)

Arrival

Time 2026-05-06 17:37
Airport Palma de Mallorca Airport (LEPA)
Time Latitude Longitude Altitude Speed Heading
2026-05-06 16:39 38.28646 -0.55031 87 ft 0 kts 280°
2026-05-06 16:52 38.28646 -0.55028 60 ft 1 kts 280°
2026-05-06 16:53 38.28643 -0.55007 89 ft 3 kts 280°
2026-05-06 16:53 38.28639 -0.54983 88 ft 2 kts 280°
2026-05-06 16:53 38.28637 -0.54967 87 ft 3 kts 259°
2026-05-06 16:53 38.28645 -0.54953 91 ft 3 kts 201°
2026-05-06 16:54 38.28658 -0.54946 91 ft 2 kts 198°
2026-05-06 16:54 38.28677 -0.54939 89 ft 3 kts 198°
2026-05-06 16:54 38.28678 -0.54938 89 ft 0 kts 198°
2026-05-06 16:56 38.28655 -0.54943 91 ft 7 kts 183°
2026-05-06 16:56 38.28594 -0.54951 87 ft 10 kts 189°
2026-05-06 16:56 38.28519 -0.54968 88 ft 12 kts 190°
2026-05-06 16:57 38.28427 -0.55014 88 ft 15 kts 249°
2026-05-06 16:57 38.28395 -0.55144 89 ft 16 kts 234°
2026-05-06 16:57 38.28327 -0.55271 90 ft 17 kts 249°
2026-05-06 16:57 38.28339 -0.55415 93 ft 16 kts 280°
2026-05-06 16:58 38.28357 -0.55548 97 ft 14 kts 280°
2026-05-06 16:58 38.28374 -0.55670 101 ft 15 kts 280°
2026-05-06 16:58 38.28402 -0.55859 104 ft 27 kts 277°
2026-05-06 16:58 38.28433 -0.56093 108 ft 27 kts 280°
2026-05-06 16:59 38.28466 -0.56332 112 ft 27 kts 280°
2026-05-06 16:59 38.28500 -0.56564 118 ft 27 kts 281°
2026-05-06 16:59 38.28531 -0.56786 125 ft 21 kts 280°
2026-05-06 16:59 38.28553 -0.56947 134 ft 15 kts 280°
2026-05-06 17:00 38.28570 -0.57068 139 ft 13 kts 280°
2026-05-06 17:00 38.28585 -0.57171 143 ft 11 kts 280°
2026-05-06 17:00 38.28597 -0.57253 147 ft 8 kts 280°
2026-05-06 17:00 38.28606 -0.57318 149 ft 7 kts 280°
2026-05-06 17:01 38.28612 -0.57374 151 ft 6 kts 268°
2026-05-06 17:01 38.28592 -0.57414 153 ft 5 kts 219°
2026-05-06 17:01 38.28553 -0.57429 154 ft 9 kts 190°
2026-05-06 17:01 38.28487 -0.57445 155 ft 10 kts 191°
2026-05-06 17:02 38.28441 -0.57418 153 ft 10 kts 107°
2026-05-06 17:02 38.28438 -0.57396 152 ft 0 kts 99°
2026-05-06 17:02 38.28437 -0.57393 152 ft 5 kts 99°
2026-05-06 17:03 38.28389 -0.57037 137 ft 77 kts 99°
2026-05-06 17:03 38.28260 -0.56102 111 ft 132 kts 99°
2026-05-06 17:03 38.28078 -0.54780 243 ft 162 kts 99°
2026-05-06 17:03 38.27857 -0.53360 952 ft 164 kts 100°
2026-05-06 17:04 38.27619 -0.51930 1622 ft 166 kts 106°
2026-05-06 17:04 38.27388 -0.50439 1989 ft 184 kts 97°
2026-05-06 17:04 38.27707 -0.48758 2218 ft 213 kts 62°
2026-05-06 17:04 38.28572 -0.47087 2454 ft 239 kts 58°
2026-05-06 17:05 38.29520 -0.45216 2853 ft 262 kts 65°
2026-05-06 17:05 38.30301 -0.43083 3601 ft 270 kts 67°
2026-05-06 17:05 38.31058 -0.40868 4471 ft 275 kts 66°
2026-05-06 17:05 38.31814 -0.38608 5297 ft 281 kts 65°
2026-05-06 17:06 38.32580 -0.36296 6129 ft 286 kts 66°
2026-05-06 17:06 38.33358 -0.33943 6943 ft 290 kts 65°
2026-05-06 17:06 38.34150 -0.31559 7728 ft 294 kts 65°
2026-05-06 17:06 38.34683 -0.29962 8248 ft 297 kts 65°
2026-05-06 17:07 38.35501 -0.27520 9042 ft 302 kts 65°
2026-05-06 17:07 38.36336 -0.25042 9798 ft 307 kts 65°
2026-05-06 17:07 38.37190 -0.22509 10288 ft 321 kts 65°
2026-05-06 17:07 38.38102 -0.19803 10477 ft 344 kts 65°
2026-05-06 17:08 38.39070 -0.16928 10786 ft 360 kts 65°
2026-05-06 17:08 38.40062 -0.13964 11359 ft 367 kts 66°
2026-05-06 17:08 38.41069 -0.10941 11956 ft 373 kts 66°
2026-05-06 17:08 38.42085 -0.07871 12570 ft 379 kts 66°
2026-05-06 17:09 38.43119 -0.04755 13178 ft 384 kts 66°
2026-05-06 17:09 38.44168 -0.01589 13772 ft 390 kts 66°
2026-05-06 17:09 38.45234 0.01623 14317 ft 395 kts 66°
2026-05-06 17:09 38.46313 0.04867 14870 ft 399 kts 66°
2026-05-06 17:10 38.47407 0.08141 15430 ft 403 kts 66°
2026-05-06 17:10 38.48509 0.11447 15988 ft 407 kts 66°
2026-05-06 17:10 38.49618 0.14786 16537 ft 411 kts 67°
2026-05-06 17:10 38.50734 0.18168 17098 ft 415 kts 67°
2026-05-06 17:11 38.51857 0.21574 17653 ft 419 kts 67°
2026-05-06 17:11 38.52992 0.25023 18214 ft 423 kts 67°
2026-05-06 17:11 38.54136 0.28502 18713 ft 427 kts 67°
2026-05-06 17:11 38.55292 0.32022 19222 ft 431 kts 67°
2026-05-06 17:12 38.56456 0.35570 19743 ft 435 kts 67°
2026-05-06 17:12 38.57631 0.39152 20267 ft 439 kts 66°
2026-05-06 17:12 38.58816 0.42767 20759 ft 443 kts 66°
2026-05-06 17:12 38.60009 0.46418 21254 ft 447 kts 66°
2026-05-06 17:13 38.61213 0.50101 21736 ft 451 kts 66°
2026-05-06 17:13 38.62426 0.53809 22200 ft 454 kts 66°
2026-05-06 17:13 38.63648 0.57555 22704 ft 458 kts 66°
2026-05-06 17:13 38.64871 0.61326 23170 ft 461 kts 67°
2026-05-06 17:14 38.66091 0.65134 23598 ft 464 kts 69°
2026-05-06 17:14 38.67028 0.69152 23854 ft 466 kts 79°
2026-05-06 17:14 38.67534 0.73191 23923 ft 465 kts 83°
2026-05-06 17:14 38.67983 0.77292 23930 ft 465 kts 83°
2026-05-06 17:15 38.68433 0.81390 23928 ft 465 kts 83°
2026-05-06 17:15 38.68884 0.85485 23932 ft 465 kts 83°
2026-05-06 17:15 38.69339 0.89633 23933 ft 464 kts 83°
2026-05-06 17:15 38.69781 0.93670 23931 ft 464 kts 83°
2026-05-06 17:16 38.70231 0.97763 23931 ft 464 kts 83°
2026-05-06 17:16 38.70686 1.01910 23931 ft 464 kts 83°
2026-05-06 17:16 38.71127 1.05995 23935 ft 464 kts 83°
2026-05-06 17:16 38.71561 1.10037 23933 ft 464 kts 83°
2026-05-06 17:17 38.72009 1.14183 23938 ft 464 kts 83°
2026-05-06 17:17 38.72449 1.18268 23938 ft 464 kts 83°
2026-05-06 17:17 38.72888 1.22359 23940 ft 464 kts 83°
2026-05-06 17:17 38.73326 1.26450 23941 ft 464 kts 83°
2026-05-06 17:18 38.73763 1.30542 23946 ft 464 kts 83°
2026-05-06 17:18 38.74202 1.34630 23947 ft 463 kts 83°
2026-05-06 17:18 38.74637 1.38720 23947 ft 463 kts 84°
2026-05-06 17:18 38.75070 1.42815 23945 ft 463 kts 84°
2026-05-06 17:19 38.75501 1.46902 23946 ft 463 kts 84°
2026-05-06 17:19 38.75930 1.50993 23942 ft 463 kts 84°
2026-05-06 17:19 38.76357 1.55081 23941 ft 463 kts 84°
2026-05-06 17:19 38.76779 1.59174 23939 ft 463 kts 84°
2026-05-06 17:20 38.77200 1.63267 23935 ft 463 kts 84°
2026-05-06 17:20 38.77622 1.67357 23935 ft 463 kts 84°
2026-05-06 17:20 38.78045 1.71454 23930 ft 463 kts 84°
2026-05-06 17:20 38.78464 1.75537 23856 ft 460 kts 84°
2026-05-06 17:21 38.78876 1.79555 23553 ft 452 kts 84°
2026-05-06 17:21 38.79282 1.83550 22990 ft 451 kts 84°
2026-05-06 17:21 38.79712 1.87523 22473 ft 449 kts 80°
2026-05-06 17:21 38.80551 1.91367 21980 ft 448 kts 68°
2026-05-06 17:22 38.81896 1.94943 21520 ft 444 kts 57°
2026-05-06 17:22 38.83666 1.98154 21051 ft 439 kts 50°
2026-05-06 17:22 38.85543 2.01234 20562 ft 438 kts 50°
2026-05-06 17:22 38.87410 2.04305 20098 ft 435 kts 50°
2026-05-06 17:23 38.89248 2.07342 19904 ft 425 kts 50°
2026-05-06 17:23 38.91023 2.10290 19935 ft 414 kts 50°
2026-05-06 17:23 38.92784 2.13217 19934 ft 413 kts 50°
2026-05-06 17:23 38.94541 2.16131 19933 ft 413 kts 50°
2026-05-06 17:24 38.96296 2.19036 19585 ft 409 kts 50°
2026-05-06 17:24 38.98031 2.21913 19164 ft 406 kts 50°
2026-05-06 17:24 38.99755 2.24773 18756 ft 403 kts 50°
2026-05-06 17:24 39.01460 2.27605 18349 ft 400 kts 50°
2026-05-06 17:25 39.03157 2.30426 17859 ft 398 kts 50°
2026-05-06 17:25 39.04851 2.33247 17237 ft 399 kts 51°
2026-05-06 17:25 39.06543 2.36071 16652 ft 399 kts 51°
2026-05-06 17:25 39.08239 2.38901 16067 ft 399 kts 51°
2026-05-06 17:26 39.09931 2.41724 15492 ft 398 kts 51°
2026-05-06 17:26 39.11817 2.44301 14930 ft 394 kts 35°
2026-05-06 17:26 39.14173 2.45924 14407 ft 374 kts 13°
2026-05-06 17:26 39.16658 2.46534 13941 ft 358 kts
2026-05-06 17:27 39.19119 2.46901 13436 ft 354 kts
2026-05-06 17:27 39.21560 2.47236 12917 ft 353 kts
2026-05-06 17:27 39.24003 2.47559 12400 ft 352 kts
2026-05-06 17:27 39.26434 2.47871 12007 ft 348 kts
2026-05-06 17:28 39.28804 2.48170 11922 ft 335 kts
2026-05-06 17:28 39.31061 2.48462 11771 ft 317 kts
2026-05-06 17:28 39.33225 2.48745 11303 ft 309 kts
2026-05-06 17:28 39.35346 2.49008 10748 ft 303 kts 359°
2026-05-06 17:29 39.37370 2.48632 10280 ft 286 kts 332°
2026-05-06 17:29 39.38901 2.47226 10056 ft 262 kts 306°
2026-05-06 17:29 39.39668 2.45177 9801 ft 251 kts 277°
2026-05-06 17:29 39.39542 2.42976 9447 ft 249 kts 249°
2026-05-06 17:30 39.38568 2.41133 8910 ft 252 kts 220°
2026-05-06 17:30 39.36991 2.40170 8425 ft 255 kts 191°
2026-05-06 17:30 39.35231 2.40360 7990 ft 258 kts 161°
2026-05-06 17:30 39.33740 2.41661 7497 ft 265 kts 132°
2026-05-06 17:31 39.32883 2.43804 6972 ft 277 kts 103°
2026-05-06 17:31 39.32889 2.46315 6421 ft 285 kts 75°
2026-05-06 17:31 39.33775 2.48557 5843 ft 280 kts 46°
2026-05-06 17:31 39.35326 2.49997 5257 ft 274 kts 18°
2026-05-06 17:32 39.37161 2.50489 4683 ft 269 kts
2026-05-06 17:32 39.39018 2.50708 4083 ft 267 kts
2026-05-06 17:32 39.40868 2.50880 3515 ft 265 kts
2026-05-06 17:32 39.42683 2.51036 3119 ft 258 kts
2026-05-06 17:33 39.44418 2.51182 2995 ft 243 kts
2026-05-06 17:33 39.46110 2.51359 3007 ft 245 kts
2026-05-06 17:33 39.47644 2.52275 3008 ft 244 kts 37°
2026-05-06 17:33 39.48869 2.53692 3002 ft 229 kts 51°
2026-05-06 17:34 39.49490 2.55505 2833 ft 222 kts 84°
2026-05-06 17:34 39.49547 2.57529 2355 ft 225 kts 89°
2026-05-06 17:34 39.49644 2.59518 2052 ft 217 kts 78°
2026-05-06 17:34 39.50148 2.61301 1780 ft 207 kts 63°
2026-05-06 17:35 39.50845 2.62894 1536 ft 197 kts 59°
2026-05-06 17:35 39.51534 2.64361 1277 ft 186 kts 59°
2026-05-06 17:35 39.52180 2.65719 1037 ft 165 kts 58°
2026-05-06 17:36 39.53275 2.68035 573 ft 142 kts 56°
2026-05-06 17:36 39.53792 2.69123 367 ft 141 kts 57°
2026-05-06 17:36 39.54306 2.70198 206 ft 141 kts 57°
2026-05-06 17:36 39.54816 2.71278 47 ft 141 kts 57°
2026-05-06 17:37 39.55276 2.72247 30 ft 105 kts 58°
2026-05-06 17:37 39.55580 2.72889 30 ft 65 kts 59°
2026-05-06 17:37 39.55711 2.73208 30 ft 27 kts 79°
2026-05-06 17:37 39.55720 2.73360 30 ft 12 kts 88°
2026-05-06 17:38 39.55716 2.73417 30 ft 1 kts 111°
2026-05-06 17:38 39.55708 2.73432 30 ft 3 kts 133°
2026-05-06 17:38 39.55685 2.73452 30 ft 5 kts 148°
2026-05-06 17:38 39.55650 2.73480 30 ft 7 kts 148°
2026-05-06 17:39 39.55603 2.73518 30 ft 9 kts 149°
2026-05-06 17:39 39.55542 2.73565 30 ft 11 kts 149°
2026-05-06 17:39 39.55468 2.73622 30 ft 13 kts 149°
2026-05-06 17:39 39.55382 2.73691 30 ft 16 kts 148°
2026-05-06 17:40 39.55282 2.73770 30 ft 18 kts 148°
2026-05-06 17:40 39.55167 2.73860 30 ft 20 kts 149°
2026-05-06 17:40 39.55038 2.73961 30 ft 23 kts 148°
2026-05-06 17:40 39.54912 2.74061 30 ft 22 kts 149°
2026-05-06 17:41 39.54816 2.74127 30 ft 12 kts 179°
2026-05-06 17:41 39.54754 2.74050 30 ft 14 kts 238°
2026-05-06 17:41 39.54701 2.73937 30 ft 16 kts 238°
2026-05-06 17:41 39.54639 2.73808 30 ft 18 kts 238°
2026-05-06 17:42 39.54586 2.73677 30 ft 13 kts 264°
2026-05-06 17:42 39.54643 2.73615 30 ft 10 kts 337°
2026-05-06 17:42 39.54678 2.73527 30 ft 12 kts 293°
2026-05-06 17:42 39.54740 2.73464 30 ft 11 kts 329°
2026-05-06 17:43 39.54783 2.73423 30 ft 5 kts 310°
2026-05-06 17:43 39.54796 2.73380 30 ft 5 kts 278°
2026-05-06 17:43 39.54795 2.73337 30 ft 0 kts 265°